sat.trackr.live / text

‹ back to catalog

STARLINK-33654

NORAD 63466 · 2025-070G

PAYLOAD ACTIVE UNKNOWN

§ Identity

Operator
Country
US
Launch date
2025-04-06
Launch site
AFETR
Launch vehicle
Mass (kg)
RCS (m²)

Purposes: comms

External: N2YO · Heavens-Above · Gunter

§ Orbital elements

Epoch: 2026-09-20T23:33:10.763712Z

Period
94.27 min
Inclination
43.0027°
Eccentricity
0.0001453
Mean motion
15.27600555 rev/d
Perigee alt
482.0 km
Apogee alt
484.0 km
Semi-major
6,861.1 km
B*
-1.7249e-4
RAAN
236.9103°
Arg perigee
273.7201°
Mean anomaly
86.3484°
Rev number
8,284

§ Raw data

STARLINK-336541 63466U 25070G   26263.98137458 -.00005009  00000+0 -17249-3 0  99942 63466  43.0027 236.9103 0001453 273.7201  86.3484 15.27600555 82843

JSON: /api/v1/satellites/63466 · /tle

For live sub-satellite position, see the globe view (requires WebGL).

§ Visibility from observer

Set your observer location to see the next 7 days of passes ≥ 10°. The values pass through the URL so the page stays shareable.

No JS? Fill the form by hand. The geolocation button needs JavaScript.